Tracking 19145 objects as of 26-Apr-2018
HD Live streaming from Space Station
objects crossing your sky now

FENGYUN 1C DEB

Track FENGYUN 1C DEB now!
10-day predictions


NORAD ID: 31259
Int'l Code: 1999-025BMR
Perigee: 837.6 km
Apogee: 946.4 km
Inclination: 99.2 °
Period: 102.7 minutes
Semi major axis: 7262 km
RCS: 0.0083 m2 (small)
Launch date: May 10, 1999
Source: People's Republic of China (PRC)
Launch site: Taiyaun Space Center, China (TSC)

Note: This is SATELLITE DEBRIS
aabbcc
Your satellite tracking list
Your tracking list is empty




NASA's NSSDC Master Catalog

Two Line Element Set (TLE):
1 31259U 99025BMR 18115.57407156  .00000326  00000-0  23494-3 0  9992
2 31259  99.1616 148.9743 0074901  39.1992 112.0422 14.02597669564011
Source of the keplerian elements: AFSPC